Starlink 1752

operational
NORAD ID: 46338 Int'l Des: 2020-062 Owner: SPXS Country: US Constellation: starlink
LEOCIRCULARSTARLINK_TYPE

关于 Starlink 1752

正在加载描述...

实时位置

正在加载3D地球...

即将过境

高度历史

Altitude vs Time

uPlot chart will show altitude changes over time

两行轨道根数

1 46338U 20062P 25257.27101395 .00000093 00000-0 25112-4 0 9990
2 46338 53.0532 88.5938 0001190 96.7285 263.3840 15.06397597277715
Epoch: Sep 14, 2025 • Age: 25 hours

当前状态

高度 558.0 km
速度 7.58 km/s
星下点 -33.00°S, 172.11°W
发射日期 Sep 3, 2020
运行时间 5 years
类型 internet

技术详情

分类 Payload
质量 260.00 kg
干质量 248.00 kg
总质量 260.00 kg
长度 0.20 m
直径 2.80 m
跨度 9.00 m
形状 Box + pan
制造商 SPXS
平台类型 Starlink
阶段状态 In Orbit
所有者/国家 SPXS/US

大型星座

Loading constellations...